Flag for Estonia Weather past 2 weeks in Tallinn, Estonia

Now
57 °F

Passing clouds.


Feels Like: 56 °F
Forecast: 48 / 61 °F
Wind: 7 mph from Northeast

Location: Tallinn

Current Time: Aug 30, 2014 at 8:27:36 PM

Latest Report: Aug 30, 2014 at 7:50 PM


Visibility: N/A

Pressure: 30.07 "Hg

Humidity: 59%

Dew point: 43 °F

Location of TallinnLocation

Historic Weather in Tallinn — Graph

°F

Tallinn temperature yesterday

Maximum temperature yesterday: 61 °F (at 3:50 PM)
Minimum temperature yesterday: 48 °F (at 3:20 AM)
Average temperature yesterday: 56 °F

Past Weeks' High & Low Weather Summary

 TemperatureHumidityPressure
High68 °F (Aug 15, 7:20 PM)100% (Aug 16, 2:20 AM)30.07 "Hg (Aug 16, 2:20 AM)
Low46 °F (Aug 23, 3:20 AM)45% (Aug 30, 2:20 PM)29.33 "Hg (Aug 26, 9:50 AM)
Average58 °F86%29.66 "Hg
* Reported Aug 15 7:20 PM — Aug 30 7:20 PM, Tallinn, Weather by CustomWeather, © 2014

Note: Actual official high and low records may vary slightly from our data, if they occured in-between our weather recording intervals... More about our weather records

Advertising

Tallinn weather history for previous 24 hours

 ConditionsComfort  
Time TempWeatherWind HumidityBarometerVisibility
7:20 PM
Aug 30
57 °FPassing clouds.6 mph59%30.07 "HgN/A
6:50 PM57 °FPassing clouds.8 mph55%30.04 "HgN/A
6:20 PM57 °FPassing clouds.7 mph55%30.04 "HgN/A
5:50 PM57 °FPassing clouds.7 mph51%30.04 "HgN/A
5:20 PM57 °FScattered clouds.8 mph51%30.04 "HgN/A
4:50 PM59 °FPassing clouds.9 mph48%30.04 "HgN/A
4:20 PM59 °FPassing clouds.9 mph48%30.04 "HgN/A
3:50 PM59 °FPassing clouds.8 mph48%30.04 "HgN/A
3:20 PM59 °FPassing clouds.8 mph48%30.04 "HgN/A
2:50 PM59 °FPassing clouds.8 mph48%30.04 "HgN/A
2:20 PM59 °FPassing clouds.10 mph45%30.04 "HgN/A
1:50 PM59 °FPassing clouds.8 mph51%30.04 "HgN/A
1:20 PM59 °FPassing clouds.8 mph51%30.04 "HgN/A
12:50 PM57 °FPassing clouds.8 mph55%30.04 "HgN/A
12:20 PM59 °FPassing clouds.8 mph55%30.04 "HgN/A
11:50 AM57 °FPassing clouds.10 mph55%30.01 "HgN/A
11:20 AM57 °FPassing clouds.10 mph59%30.01 "HgN/A
10:50 AM57 °FPassing clouds.9 mph63%30.01 "HgN/A
10:20 AM57 °FPassing clouds.9 mph72%30.01 "HgN/A
9:50 AM57 °FPassing clouds.8 mph72%30.01 "HgN/A
9:20 AM55 °FPassing clouds.7 mph82%30.01 "HgN/A
8:50 AM55 °FPassing clouds.8 mph82%29.98 "HgN/A
8:20 AM55 °FPassing clouds.5 mph88%29.98 "HgN/A
7:50 AM55 °FOvercast.5 mph88%29.98 "HgN/A
7:20 AM54 °FOvercast.5 mph100%29.98 "HgN/A
6:50 AM50 °FPassing clouds.5 mph100%29.98 "HgN/A
6:20 AM48 °FLight fog.3 mph100%29.95 "HgN/A
5:50 AM50 °FLight fog.3 mph100%29.95 "HgN/A
5:20 AM52 °FPassing clouds.3 mph94%29.95 "HgN/A
4:50 AM54 °FPassing clouds.3 mph94%29.95 "HgN/A
4:20 AM55 °FPassing clouds.2 mph94%29.95 "HgN/A
3:50 AM55 °FLight fog.5 mph94%29.92 "HgN/A
3:20 AM54 °FPassing clouds.5 mph100%29.92 "HgN/A
2:50 AM50 °FPassing clouds.1 mph100%29.92 "HgN/A
2:20 AM52 °FPassing clouds.2 mph94%29.92 "HgN/A
1:50 AM52 °FPassing clouds.2 mph100%29.92 "HgN/A
1:20 AM52 °FPassing clouds.No wind94%29.92 "HgN/A
12:50 AM55 °FPassing clouds.3 mph88%29.92 "HgN/A
12:20 AM55 °FPassing clouds.6 mph94%29.92 "HgN/A
10:20 PM
Aug 29
57 °FPassing clouds.5 mph82%29.89 "HgN/A
9:50 PM57 °FPassing clouds.5 mph88%29.89 "HgN/A
9:20 PM57 °FPassing clouds.3 mph82%29.89 "HgN/A
8:50 PM57 °FPassing clouds.5 mph77%29.89 "HgN/A
8:20 PM57 °FPassing clouds.6 mph82%29.89 "HgN/A
Weather by CustomWeather, © 2014

See weather overviewHow to use our weather pages